Tracking 20232 objects as of 20-Jan-2020
HD Live streaming from Space Station
objects crossing your sky now

COSMOS 2300

Track COSMOS 2300 now!
10-day predictions
COSMOS 2300 is classified as:


NORAD ID: 23442
Int'l Code: 1994-086B
Perigee: 1,416.1 km
Apogee: 1,421.5 km
Inclination: 82.6 °
Period: 114.0 minutes
Semi major axis: 7789 km
RCS: 1.1654 m2 (large)
Launch date: December 26, 1994
Source: Commonwealth of Independent States (former USSR) (CIS)
Launch site: PLESETSK MISSILE AND SPACE COMPLEX (PKMTR)
aabbcc
Your satellite tracking list
Your tracking list is empty




NASA's NSSDC Master Catalog

Two Line Element Set (TLE):
1 23442U 94086B   20020.43904111 +.00000004 +00000-0 -38278-4 0  9996
2 23442 082.5632 001.0498 0003438 128.3661 346.8361 12.62740547155280
Source of the keplerian elements: AFSPC